User: anonymous
Location: Unspecified
(0.0000°N, 0.0000°E)
Time: 12:19:18
(UTC+02:00)
Language:

NOAA 12 - Orbit

View from above orbital plane
View from above orbital plane
View from above satellite
View from above satellite

Ground track
Ground track

The orbit data is extracted from the following two-line orbital elements,

1 21263U 91032A   14292.44473259  .00000182  00000-0  95352-4 0  4674
2 21263 098.6541 317.8008 0013037 232.1795 232.2899 14.25689440218266
Epoch (UTC): 19 October 2014 10:40:24
Eccentricity: 0.0013037
inclination: 98.6541°
perigee height: 797 km
apogee height: 815 km
right ascension of ascending node: 317.8008°
argument of perigee: 232.1795°
revolutions per day: 14.25689440
mean anomaly at epoch: 232.2899°
orbit number at epoch: 21826

The dashed part of the orbit path shows where the satellite is in the earth's shadow,  

DLR